Back to catalog

TITAN 3C TRANSTAGE DEB

LostHEO
NORAD 13958·DEBRIS·🇺🇸 United States

Launched Dec 21, 1965 from Cape Canaveral Space Force Station

Loading…

Next Passes (next 24 hours)

TLE

StaleSource: Space-Track

Epoch: Aug 14, 2025, 11:27 UTC

1 13958U 65108X   25226.47724523 -.00000024  00000-0  66960-3 0  9994
2 13958  27.0653 294.1007 6815587 171.5223 338.5354  2.70123485210528

Track TITAN 3C TRANSTAGE DEB in real time with AllMySat

Download on the App Store